Location: Bonny Doon Airfield
(37.0704°N, 122.1252°W)
Time: 11:59:18
(UTC-07:00)

ISS - Visible Passes

Search period start: 19 March 2019 00:00
Search period end: 29 March 2019 00:00
Orbit: 406 x 411 km, 51.6° (Epoch: 20 March)

Date Brightness Start Highest point End Pass type
(mag) Time Alt. Az. Time Alt. Az. Time Alt. Az.
19 Mar -2.1 20:13:28 10° S 20:15:41 17° SE 20:15:46 17° SE visible
20 Mar -3.8 20:57:42 10° SW 21:00:51 77° W 21:00:51 77° W visible
21 Mar -3.6 20:06:50 10° SSW 20:10:01 48° SE 20:12:53 12° ENE visible
21 Mar -0.8 21:44:16 10° WNW 21:45:40 17° NW 21:45:40 17° NW visible
22 Mar -2.0 20:52:36 10° W 20:55:34 31° NNW 20:57:29 17° NNE visible
23 Mar -3.1 20:01:14 10° WSW 20:04:28 56° NW 20:07:43 10° NE visible
23 Mar -0.7 21:40:25 10° NW 21:41:36 12° NNW 21:41:51 11° NNW visible
24 Mar -1.0 20:48:09 10° WNW 20:50:18 16° NNW 20:52:27 10° NNE visible
25 Mar -1.6 19:56:18 10° W 19:59:03 24° NNW 20:01:48 10° NNE visible
27 Mar -1.0 19:52:00 10° NW 19:53:45 14° NNW 19:55:30 10° N visible
